Temp
71 73 74 75 75 74 74 74 74 74 75 75 75 75 75 75 75 75 76 76 76 77 78 77 77 77 76 76 75 74 74 74 73 74 75 75 76 75 74 74 73 72 74
72 73 73 74 74 74 74 74 75 75 75 75 75 75 75 75 75 75 75 75 76 78 78 77 77 76 76 75 74 74 73 73 72 73 74 74 75 75 74 73 73 73 74
71 73 74 73 74 74 75 75 75 75 76 76 75 75 75 75 75 75 75 75 76 77 78 77 77 76 75 74 73 73 73 73 72 72 73 71 71 74 74 73 73 73 73
72 73 73 72 73 74 74 74 74 75 74 74 75 75 75 75 75 75 75 74 75 76 77 77 77 76 74 73 72 72 72 72 72 71 69 72 74 75 74 73 73 72 73
70 72 72 71 72 73 73 73 73 73 73 72 73 74 74 74 74 74 74 73 74 75 76 76 76 75 73 72 71 71 72 71 71 70 69 70 70 75 74 73 72 72 72
70 72 70 70 71 72 72 72 72 72 72 72 72 73 73 73 73 73 73 73 73 74 75 75 74 73 72 71 71 71 70 70 70 67 68 70 71 75 75 73 71 71 71
66 67 69 70 71 72 72 72 71 71 71 71 72 72 73 73 73 72 72 72 72 72 73 72 72 72 71 70 70 70 70 69 68 67 67 68 68 75 75 73 72 71 71
66 67 67 70 70 70 71 70 70 70 70 70 70 71 71 72 71 72 72 71 71 72 72 72 71 70 70 70 70 69 68 68 70 67 66 66 69 74 75 73 72 71 70
68 65 64 65 69 69 69 68 68 68 68 68 68 68 68 68 68 69 70 71 71 71 70 70 69 70 70 69 69 68 67 68 67 67 69 67 70 73 75 74 72 71 71
63 61 61 62 63 63 64 68 67 66 66 66 66 66 65 64 66 68 67 69 69 69 69 68 68 68 68 68 68 68 67 68 66 66 68 68 70 74 75 74 73 72 71
61 59 58 59 61 61 63 66 65 65 64 63 62 63 60 58 58 61 66 67 67 67 67 67 67 66 65 66 67 67 68 71 69 68 69 69 70 72 75 75 72 72 71
56 57 57 57 58 60 65 58 57 60 57 56 56 55 55 54 58 60 62 64 65 64 65 65 65 64 63 59 61 61 63 65 64 67 70 68 70 73 73 75 73 71 71
56 57 57 56 56 56 56 54 54 54 53 54 54 53 52 54 52 54 54 55 54 60 57 59 58 59 58 58 59 57 57 59 57 61 65 66 68 72 73 72 73 73 71
55 55 55 55 55 54 54 53 53 55 53 52 53 52 50 51 51 52 53 52 54 53 54 54 54 55 55 57 57 57 58 58 58 56 58 64 65 68 71 73 72 71 69
54 54 54 54 54 54 53 52 52 53 53 51 51 52 51 50 49 50 50 52 52 53 52 52 52 53 53 54 55 55 56 55 56 58 55 62 63 65 68 70 71 71 70
54 54 53 54 53 54 52 52 51 52 51 51 50 51 51 49 48 49 50 51 51 51 51 51 50 50 50 51 52 53 53 54 54 54 57 55 61 61 63 64 66 67 68
54 54 53 53 53 53 52 52 52 54 52 50 51 50 50 49 48 48 48 48 48 48 49 49 48 48 48 49 47 49 50 52 53 53 54 55 54 59 59 61 62 63 65
53 53 54 59 53 52 52 51 53 51 50 49 49 49 50 50 49 47 48 47 47 48 47 46 44 44 43 43 43 46 47 48 49 51 52 52 53 56 56 59 59 60 61
52 52 52 52 51 51 51 50 50 50 49 48 48 48 49 49 49 47 47 46 46 46 44 44 42 42 41 42 44 45 45 44 46 51 50 50 51 53 54 56 56 56 58
50 51 51 51 51 51 49 49 48 48 47 48 47 47 49 48 48 46 45 45 46 43 42 42 41 41 40 41 44 44 43 43 45 45 46 50 49 50 50 50 50 52 54
49 50 51 50 49 49 47 47 47 46 46 46 47 49 48 48 47 45 44 44 44 42 41 42 40 40 40 42 39 39 39 43 43 44 44 45 45 47 47 47 49 49 49
50 50 49 49 49 49 48 46 47 46 45 46 46 47 48 47 47 47 43 42 42 41 40 38 38 38 38 41 37 35 33 38 41 43 43 43 43 44 45 47 46 47 48
48 47 49 48 48 49 48 47 46 46 45 44 45 44 45 46 46 44 43 42 41 39 37 36 38 40 37 38 40 37 31 32 35 39 40 41 40 41 42 43 45 46 46
49 48 48 49 48 49 47 46 45 43 43 43 42 43 44 45 45 44 43 41 40 38 37 38 40 41 41 38 39 42 41 38 31 30 36 39 41 41 40 40 42 43 45
49 49 49 48 47 46 45 45 43 42 42 42 41 42 42 42 44 43 41 40 39 38 37 37 37 38 41 39 38 38 38 38 38 34 29 33 37 39 40 40 40 42 44
49 48 47 48 47 47 46 44 43 42 41 40 39 40 40 41 41 41 41 39 38 37 37 36 37 39 38 38 37 38 36 33 32 32 29 30 31 35 38 39 40 41 42
MSLP
1015.43 1015.18 1014.98 1015.05 1014.97 1015.11 1015.22 1015.27 1015.38 1015.39 1015.27 1015.33 1015.41 1015.52 1015.40 1015.40 1015.31 1015.24 1015.38 1015.06 1015.09 1015.07 1015.09 1015.01 1015.06 1015.00 1015.05 1015.06 1015.05 1014.95 1014.92 1014.93 1014.86 1014.83 1014.65 1014.64 1014.52 1014.46 1014.37 1014.34 1014.26 1014.16 1013.87
1015.17 1015.47 1015.35 1015.21 1015.15 1015.28 1015.38 1015.57 1015.61 1015.56 1015.50 1015.52 1015.55 1015.56 1015.44 1015.52 1015.50 1015.46 1015.57 1015.36 1015.33 1015.28 1015.18 1015.20 1015.13 1015.12 1015.22 1015.30 1015.24 1015.15 1015.06 1015.06 1015.00 1014.93 1014.79 1014.68 1014.57 1014.44 1014.43 1014.35 1014.22 1014.02 1013.99
1015.48 1015.55 1015.44 1015.33 1015.38 1015.48 1015.64 1015.77 1015.85 1015.73 1015.69 1015.58 1015.77 1015.71 1015.62 1015.62 1015.69 1015.70 1015.68 1015.56 1015.54 1015.45 1015.29 1015.28 1015.22 1015.25 1015.43 1015.50 1015.43 1015.22 1015.17 1015.09 1014.96 1014.88 1014.66 1014.59 1014.57 1014.50 1014.49 1014.34 1014.14 1013.97 1014.01
1015.48 1015.46 1015.47 1015.52 1015.66 1015.77 1015.90 1015.95 1016.03 1015.98 1015.96 1015.97 1015.91 1015.78 1015.72 1015.75 1015.76 1015.81 1015.80 1015.66 1015.62 1015.56 1015.37 1015.33 1015.31 1015.39 1015.52 1015.53 1015.47 1015.33 1015.21 1015.02 1014.98 1014.89 1014.72 1014.32 1014.21 1014.22 1014.45 1014.35 1014.09 1014.03 1014.06
1015.62 1015.70 1015.87 1015.87 1015.91 1015.98 1016.01 1016.10 1016.13 1016.14 1016.24 1016.29 1016.20 1016.03 1015.90 1015.95 1015.99 1015.93 1015.88 1015.81 1015.76 1015.64 1015.54 1015.50 1015.45 1015.51 1015.54 1015.53 1015.46 1015.29 1015.11 1014.95 1014.91 1014.97 1014.75 1014.36 1014.20 1014.10 1014.26 1014.33 1014.05 1014.02 1014.05
1015.86 1016.05 1016.16 1016.17 1016.19 1016.26 1016.32 1016.40 1016.43 1016.47 1016.42 1016.39 1016.35 1016.23 1016.22 1016.23 1016.13 1016.01 1015.94 1015.93 1015.90 1015.82 1015.73 1015.65 1015.65 1015.62 1015.61 1015.55 1015.40 1015.26 1015.05 1014.88 1014.70 1014.69 1014.71 1014.41 1014.22 1013.98 1014.02 1014.18 1014.17 1014.01 1013.99
1016.53 1016.56 1016.52 1016.49 1016.46 1016.46 1016.47 1016.52 1016.59 1016.56 1016.53 1016.51 1016.39 1016.34 1016.33 1016.30 1016.18 1016.11 1016.12 1016.15 1016.08 1016.01 1015.89 1015.81 1015.77 1015.71 1015.65 1015.54 1015.42 1015.31 1015.16 1014.96 1014.70 1014.53 1014.53 1014.42 1014.20 1013.91 1013.91 1014.01 1014.03 1014.00 1013.89
1016.62 1016.79 1016.76 1016.73 1016.65 1016.53 1016.60 1016.74 1016.85 1016.88 1016.80 1016.75 1016.62 1016.58 1016.63 1016.55 1016.47 1016.42 1016.27 1016.17 1016.15 1016.08 1016.03 1015.94 1015.81 1015.67 1015.50 1015.37 1015.29 1015.22 1015.11 1014.94 1014.69 1014.50 1014.50 1014.43 1014.22 1014.01 1013.86 1013.85 1013.76 1014.00 1013.75
1016.73 1017.01 1017.08 1017.03 1016.93 1016.96 1017.02 1017.06 1017.20 1017.26 1017.26 1017.13 1017.07 1017.07 1017.07 1016.96 1016.87 1016.79 1016.65 1016.49 1016.41 1016.41 1016.47 1016.40 1016.25 1015.94 1015.66 1015.42 1015.29 1015.17 1015.01 1014.68 1014.54 1014.38 1014.27 1014.15 1014.06 1013.87 1013.74 1013.68 1013.62 1013.75 1013.63
1017.30 1017.53 1017.49 1017.42 1017.37 1017.37 1017.43 1017.51 1017.57 1017.57 1017.60 1017.52 1017.37 1017.50 1017.46 1017.35 1017.27 1017.12 1017.04 1016.93 1016.94 1016.90 1016.85 1016.70 1016.47 1016.29 1016.07 1015.80 1015.53 1015.27 1015.05 1014.71 1014.57 1014.45 1014.27 1014.07 1013.84 1013.72 1013.51 1013.63 1013.47 1013.41 1013.38
1017.65 1017.85 1017.71 1017.51 1017.50 1017.51 1017.57 1017.69 1017.85 1018.07 1018.14 1018.13 1017.98 1017.88 1017.97 1018.00 1017.86 1017.73 1017.66 1017.49 1017.40 1017.24 1017.08 1016.97 1016.77 1016.60 1016.44 1016.19 1015.93 1015.62 1015.20 1014.93 1014.79 1014.50 1014.29 1014.17 1014.06 1013.74 1013.22 1012.97 1013.06 1013.04 1012.87
1017.97 1018.04 1017.85 1017.80 1017.78 1017.71 1017.88 1018.12 1018.25 1018.38 1018.55 1018.58 1018.58 1018.63 1018.49 1018.41 1018.30 1018.25 1018.19 1018.02 1017.86 1017.78 1017.55 1017.44 1017.29 1017.15 1016.99 1016.94 1016.64 1016.30 1015.94 1015.48 1015.11 1014.75 1014.49 1014.34 1014.01 1013.47 1012.87 1012.45 1012.49 1012.55 1012.82
1017.87 1018.00 1018.06 1017.97 1018.03 1018.00 1018.28 1018.50 1018.63 1018.83 1018.99 1019.11 1019.08 1019.17 1019.05 1018.96 1018.84 1018.87 1018.78 1018.72 1018.53 1018.37 1018.27 1018.06 1017.93 1017.80 1017.63 1017.44 1017.13 1016.85 1016.46 1016.04 1015.75 1015.27 1014.80 1014.38 1014.14 1013.65 1012.99 1012.45 1012.39 1012.46 1012.42
1017.94 1018.17 1018.28 1018.09 1018.16 1018.29 1018.39 1018.72 1018.82 1019.00 1019.27 1019.40 1019.54 1019.53 1019.50 1019.41 1019.32 1019.32 1019.21 1019.13 1018.94 1018.88 1018.74 1018.63 1018.58 1018.38 1018.16 1017.89 1017.61 1017.25 1016.84 1016.41 1016.05 1015.77 1015.44 1014.92 1014.29 1013.81 1013.35 1012.66 1012.40 1012.12 1010.60
1018.01 1018.25 1018.37 1018.26 1018.35 1018.57 1018.78 1018.92 1019.08 1019.40 1019.50 1019.71 1019.82 1019.88 1019.77 1019.78 1019.82 1019.78 1019.69 1019.58 1019.45 1019.27 1019.16 1019.04 1018.95 1018.79 1018.57 1018.32 1018.02 1017.66 1017.22 1016.80 1016.38 1016.10 1015.70 1015.21 1014.78 1014.16 1013.35 1012.87 1012.56 1012.23 1011.67
1017.95 1018.26 1018.40 1018.50 1018.52 1018.60 1019.05 1019.26 1019.40 1019.61 1019.71 1019.82 1020.08 1020.20 1020.07 1020.11 1020.18 1020.32 1020.26 1020.17 1019.98 1019.80 1019.67 1019.59 1019.50 1019.27 1019.03 1018.72 1018.39 1017.96 1017.57 1017.10 1016.75 1016.37 1015.92 1015.52 1015.09 1014.77 1014.04 1013.59 1013.02 1012.61 1012.17
1017.71 1017.97 1018.31 1018.46 1018.69 1018.81 1019.02 1019.26 1019.44 1019.63 1019.93 1020.17 1020.43 1020.52 1020.47 1020.48 1020.62 1020.69 1020.78 1020.75 1020.63 1020.43 1020.23 1020.02 1019.95 1019.84 1019.60 1019.25 1018.95 1018.39 1017.83 1017.40 1017.01 1016.67 1016.25 1016.00 1015.59 1015.14 1014.93 1014.46 1013.87 1013.36 1012.80
1017.62 1017.99 1018.23 1018.46 1018.87 1019.05 1019.16 1019.33 1019.52 1019.85 1020.14 1020.38 1020.60 1020.76 1020.75 1020.86 1020.91 1020.95 1020.96 1020.98 1020.90 1020.76 1020.75 1020.53 1020.43 1020.13 1019.94 1019.64 1019.17 1018.51 1018.01 1017.62 1017.22 1016.73 1016.63 1016.51 1016.17 1015.65 1015.34 1014.99 1014.51 1013.94 1013.73
1017.56 1018.08 1018.48 1018.73 1019.06 1019.29 1019.31 1019.50 1019.78 1020.09 1020.33 1020.61 1020.84 1021.00 1020.98 1021.02 1021.00 1021.03 1021.23 1021.34 1021.31 1021.43 1021.52 1021.42 1021.28 1020.89 1020.41 1019.90 1019.28 1018.66 1018.17 1017.85 1017.53 1017.09 1016.90 1016.49 1016.50 1016.33 1015.82 1015.43 1015.15 1014.53 1014.01
1017.51 1017.97 1018.45 1018.78 1019.10 1019.32 1019.55 1019.86 1020.11 1020.32 1020.66 1020.82 1021.05 1021.08 1020.99 1021.06 1021.17 1021.37 1021.58 1021.76 1021.87 1022.04 1022.07 1021.90 1021.61 1021.33 1021.04 1020.37 1019.32 1018.70 1018.24 1017.74 1017.68 1017.52 1017.38 1016.82 1016.91 1016.74 1016.55 1016.28 1015.54 1015.04 1014.60
1017.58 1018.03 1018.49 1018.92 1019.31 1019.44 1019.77 1020.13 1020.42 1020.82 1021.03 1021.25 1021.20 1021.17 1021.21 1021.41 1021.54 1021.63 1021.92 1022.16 1022.32 1022.53 1022.58 1022.45 1022.10 1021.67 1021.04 1020.46 1019.80 1018.67 1018.16 1017.76 1017.78 1017.83 1017.53 1017.43 1017.42 1017.23 1017.05 1016.76 1016.35 1015.71 1014.82
1017.22 1017.80 1018.32 1018.74 1019.14 1019.34 1019.45 1019.77 1019.99 1020.49 1021.05 1021.18 1021.26 1021.29 1021.36 1021.52 1021.63 1021.91 1022.30 1022.65 1022.72 1022.82 1022.86 1022.77 1022.68 1022.56 1022.09 1021.67 1021.40 1020.49 1019.59 1018.60 1018.08 1018.18 1017.91 1017.93 1018.04 1017.90 1017.50 1017.13 1016.85 1016.16 1015.42
1016.65 1017.23 1017.92 1018.42 1018.81 1019.04 1019.30 1019.67 1020.09 1020.56 1021.19 1021.49 1021.51 1021.67 1021.75 1021.74 1022.09 1022.47 1022.89 1023.00 1023.03 1023.13 1023.20 1023.17 1023.05 1022.86 1022.70 1022.39 1022.18 1022.18 1021.34 1020.94 1020.27 1018.61 1018.45 1018.47 1018.50 1018.41 1018.01 1017.58 1016.94 1016.46 1015.74
1015.91 1016.69 1017.34 1017.98 1018.54 1019.05 1019.37 1019.71 1020.22 1020.84 1021.40 1021.69 1021.81 1022.01 1022.20 1022.24 1022.47 1022.80 1023.09 1023.16 1023.27 1023.41 1023.57 1023.49 1023.36 1023.33 1023.14 1022.96 1022.79 1022.74 1022.78 1022.62 1021.71 1019.80 1019.01 1018.89 1018.85 1018.65 1018.25 1017.74 1017.12 1016.45 1015.83
1015.37 1016.22 1017.02 1017.76 1018.46 1019.03 1019.45 1019.82 1020.38 1021.07 1021.38 1021.68 1021.93 1022.18 1022.46 1022.55 1022.76 1023.13 1023.33 1023.52 1023.69 1023.71 1023.73 1023.67 1023.50 1023.31 1023.35 1023.34 1023.00 1022.99 1022.78 1022.63 1022.32 1021.79 1019.22 1019.21 1019.11 1018.63 1018.20 1017.96 1017.15 1016.56 1015.88
1015.45 1016.30 1016.97 1017.58 1018.43 1018.90 1019.50 1020.13 1020.57 1021.12 1021.55 1021.93 1022.26 1022.40 1022.54 1022.98 1023.26 1023.44 1023.48 1023.61 1023.94 1024.25 1024.14 1023.99 1023.83 1023.88 1024.07 1024.09 1023.72 1023.25 1023.20 1023.08 1022.58 1022.35 1021.15 1020.03 1019.45 1018.48 1018.02 1017.54 1016.92 1016.41 1015.91
Wind_Speed
3 4 9 8 10 10 10 10 10 10 10 10 9 9 9 9 9 9 8 8 8 9 10 10 9 8 8 7 7 7 8 8 8 8 7 5 5 5 6 7 9 5 9
7 4 8 9 10 10 10 9 9 9 9 9 9 8 9 8 8 8 8 9 8 8 7 7 7 7 6 6 6 6 7 7 6 6 7 4 1 4 5 6 8 7 9
7 5 7 9 10 11 10 10 10 10 10 10 8 8 8 8 8 8 8 8 9 8 7 5 5 6 5 5 5 6 6 5 5 5 8 3 3 3 4 6 8 8 8
8 9 8 10 10 11 11 11 11 12 11 11 11 10 9 8 8 9 8 8 9 10 9 8 4 6 6 7 7 7 8 9 7 7 5 4 5 7 5 6 9 8 8
8 9 9 11 12 13 13 13 14 14 13 13 12 12 11 11 11 9 8 7 7 8 8 8 9 6 5 6 6 7 9 10 10 7 6 4 4 7 8 7 7 8 8
9 8 10 11 11 12 13 13 12 12 12 11 11 10 10 10 10 11 9 8 9 8 8 8 8 7 6 7 7 7 8 10 11 4 5 6 5 10 11 9 9 10 9
7 5 7 10 12 12 13 14 13 13 13 12 11 11 11 13 12 11 11 10 10 11 11 11 11 10 10 9 9 9 10 11 7 5 4 6 5 13 13 13 11 11 12
9 5 6 11 10 12 13 14 13 14 15 15 15 11 16 15 14 16 12 11 11 13 12 11 11 10 10 9 9 9 9 10 9 8 4 5 8 13 14 14 13 12 14
7 6 4 4 8 11 12 14 14 15 17 18 19 17 18 18 17 18 19 19 17 19 19 19 20 15 16 12 10 9 11 11 7 6 7 4 9 11 15 15 15 15 15
6 6 4 3 4 6 6 15 17 17 18 19 20 19 18 17 18 18 18 17 20 20 20 21 19 18 19 19 15 11 11 11 5 6 6 5 11 13 16 16 17 18 17
5 5 4 5 4 6 6 11 15 18 18 17 15 18 12 7 8 11 18 19 21 19 20 20 18 17 16 15 17 17 12 6 8 5 5 10 15 18 18 19 20 19 19
4 4 5 5 5 7 6 7 7 9 7 7 8 8 5 6 8 10 14 19 19 19 19 19 19 18 14 6 6 10 6 9 7 7 6 17 20 20 19 17 21 21 20
5 4 4 6 6 7 6 4 3 4 4 5 8 6 6 5 5 6 4 5 5 14 7 10 9 8 10 8 8 6 6 6 4 5 9 19 22 24 22 21 20 20 21
7 5 4 6 6 6 4 4 4 5 4 5 6 6 5 4 6 6 4 5 6 6 8 7 5 8 9 10 10 9 9 8 6 4 8 18 21 23 24 20 19 14 23
7 6 5 6 6 6 6 4 5 6 5 5 5 6 5 5 6 4 5 6 6 6 6 7 7 7 8 9 8 9 9 9 9 6 5 15 17 23 23 23 23 21 21
8 7 5 6 6 6 5 6 5 6 5 5 5 5 7 6 5 5 6 7 7 6 7 7 7 7 7 8 9 9 10 8 9 8 7 7 17 21 23 25 26 26 25
7 8 7 7 6 7 7 6 5 6 6 6 5 6 6 6 6 5 5 5 5 5 8 7 8 7 7 8 9 8 8 9 9 10 7 8 8 15 21 26 26 27 27
8 8 6 6 7 7 6 5 5 5 5 5 5 4 6 7 6 5 6 6 5 6 7 6 8 7 6 7 7 7 6 7 7 6 8 8 7 8 13 24 26 26 27
9 8 7 6 6 7 6 5 6 7 5 5 5 4 6 6 6 6 6 5 6 6 6 6 6 6 7 8 9 7 7 5 5 6 10 8 9 10 9 19 25 24 27
9 8 7 5 6 6 5 5 4 5 4 4 4 4 6 5 6 6 5 6 6 6 6 5 6 6 5 9 9 7 8 4 1 6 7 7 9 10 12 14 11 13 26
8 8 7 6 4 4 2 4 3 4 4 3 4 5 6 6 7 6 6 6 6 7 7 8 6 9 9 10 6 6 3 5 3 9 4 5 10 11 13 11 10 10 11
11 9 8 7 6 4 3 2 3 4 3 3 3 5 6 8 6 8 7 6 5 5 7 6 8 7 4 8 7 4 6 5 6 11 7 7 13 10 11 11 13 13 12
13 11 9 8 7 5 5 4 4 5 3 2 4 4 4 7 8 8 6 5 5 4 4 4 6 9 7 5 9 7 5 6 13 3 7 9 7 10 9 11 11 14 13
14 11 11 9 7 6 5 5 5 4 4 2 3 3 5 7 9 7 7 6 5 3 4 4 5 5 6 6 4 7 6 7 5 8 3 12 10 11 11 8 11 11 12
14 13 11 10 8 7 7 7 6 6 4 3 4 6 7 6 7 7 6 6 6 4 4 5 5 5 3 3 4 5 6 5 8 7 14 12 12 10 7 11 8 8 10
11 12 11 12 8 8 8 7 8 7 6 5 4 4 4 4 4 6 6 6 5 5 5 4 5 7 6 6 5 6 5 5 7 7 11 13 14 10 11 6 9 7 8
Wind_Direction
65 59 87 96 91 91 91 86 83 82 83 79 75 70 69 66 61 57 52 58 46 56 53 55 52 51 48 44 35 24 20 28 23 15 15 27 40 46 59 69 61 40 32
104 80 93 95 94 92 90 91 90 87 81 80 72 71 72 70 64 60 49 41 39 44 55 60 56 49 40 31 23 8 360 19 12 7 344 319 51 66 96 87 79 62 35
91 83 90 91 92 92 92 90 86 82 80 78 77 70 62 58 52 53 46 39 25 23 30 38 46 41 28 14 4 353 333 343 354 354 328 281 182 137 128 111 100 81 61
115 100 82 82 89 91 89 84 80 78 69 62 59 58 55 51 55 55 48 37 25 9 23 15 23 36 16 1 350 339 328 326 336 342 336 299 196 166 178 147 118 98 86
92 87 84 78 81 82 83 82 80 77 72 62 52 50 51 47 45 49 42 38 31 19 15 11 6 27 3 347 338 330 321 321 328 343 320 325 221 179 187 165 135 121 108
82 89 90 88 87 91 89 85 82 78 75 70 60 54 55 47 43 37 29 32 24 12 5 0 356 354 340 331 326 317 314 316 318 320 310 302 262 191 189 176 152 142 132
103 96 103 107 106 105 98 94 90 78 68 55 49 60 68 59 58 56 48 38 27 19 12 4 359 353 345 333 325 321 319 314 308 299 294 312 319 205 191 179 164 161 149
125 126 116 115 109 106 100 90 77 67 61 51 51 55 51 48 41 32 41 33 29 23 20 13 7 2 346 334 328 324 318 306 306 299 305 293 293 254 201 188 173 178 163
92 104 96 97 109 99 94 90 76 67 58 52 51 53 49 44 41 39 33 37 41 36 32 31 21 14 7 2 348 331 314 295 284 288 294 281 283 277 234 195 186 187 178
79 81 71 64 85 88 90 87 76 64 60 59 56 49 46 40 39 36 36 40 40 38 31 30 27 22 16 9 5 5 353 340 323 306 304 292 284 294 257 220 199 196 189
72 70 66 79 96 100 86 93 78 69 60 53 51 50 40 29 25 26 39 39 38 33 29 26 22 21 18 12 13 7 356 1 356 342 325 341 333 319 298 241 211 206 196
129 88 71 77 82 87 83 87 85 79 65 58 52 41 37 33 34 37 37 36 32 27 22 21 22 21 17 7 3 5 1 353 354 343 346 343 342 340 320 279 225 209 209
150 108 95 96 90 93 93 90 86 80 66 57 55 45 37 35 23 27 28 22 19 16 15 17 20 20 12 9 3 355 347 346 348 345 345 343 342 340 339 322 271 224 215
139 132 113 103 103 94 99 89 104 97 79 73 59 51 43 39 33 33 36 22 23 13 15 21 20 15 14 5 2 355 350 345 346 341 343 342 339 339 333 334 334 287 230
132 136 123 115 108 109 92 94 94 98 90 82 69 55 51 45 42 33 31 30 25 20 20 23 16 14 7 2 359 352 345 345 341 343 338 340 342 346 343 341 343 332 318
139 140 136 117 114 115 105 104 105 105 102 83 74 63 50 50 45 40 37 30 27 23 20 21 13 9 2 357 356 347 342 336 335 338 340 346 353 9 27 8 359 356 356
150 144 141 135 126 123 123 117 109 105 95 85 83 66 58 52 52 53 51 35 20 18 26 23 18 7 4 0 347 337 333 337 338 340 349 353 352 1 10 359 357 355 356
139 145 157 133 129 133 125 115 108 107 102 97 86 79 65 59 62 59 58 39 19 40 32 22 14 7 3 355 334 330 322 332 330 346 13 355 0 1 3 4 1 359 357
137 138 131 132 141 140 124 112 108 107 98 93 88 85 75 72 64 66 56 32 33 47 33 22 16 5 356 348 331 323 323 316 328 21 8 2 1 6 359 4 354 354 355
135 131 132 140 139 134 118 101 87 89 84 93 98 99 90 86 73 70 56 43 57 48 34 22 15 3 356 338 326 315 310 290 55 28 355 353 23 4 10 354 348 347 348
134 134 137 139 151 130 123 119 114 114 100 86 86 103 90 80 75 71 60 53 60 47 33 19 3 4 1 354 343 333 314 304 104 3 4 358 18 11 359 352 352 340 337
149 144 136 134 151 149 135 152 129 134 100 123 104 79 76 82 80 72 72 66 65 62 42 27 18 7 352 11 352 303 347 338 3 323 7 23 2 1 351 349 338 338 337
152 156 147 143 141 148 140 114 91 80 81 69 51 64 70 81 75 79 70 70 62 58 56 41 25 15 3 2 7 18 345 337 330 314 353 4 352 345 340 338 333 332 324
163 155 148 142 130 132 131 110 126 124 126 127 105 95 81 79 87 83 76 67 61 58 44 38 31 19 8 8 7 18 353 320 334 317 344 325 340 333 335 326 328 319 323
155 155 148 135 124 121 112 115 118 112 113 115 100 92 97 80 94 88 77 66 51 36 49 46 31 6 17 0 11 353 343 317 314 308 310 326 322 326 322 325 309 319 321
151 148 145 139 134 126 115 119 121 129 127 108 112 101 98 94 87 84 79 66 52 41 41 23 23 25 23 14 1 358 349 333 324 320 308 316 315 321 320 308 312 325 324